Weather History for Marion, IN

Change the Weather History Date:

Sunday, October 7, 2012

  Actual Average (KMIE) Record (KMIE)
Temperature  
Mean Temperature 40 °F 57 °F  
Max Temperature 47 °F 68 °F 90 °F (2007)
Min Temperature 33 °F 46 °F 30 °F (2000)
Degree Days  
Heating Degree Days 25 9  
Month to date heating degree days 58  
Since 1 July heating degree days 159  
Cooling Degree Days 0 1  
Month to date cooling degree days 7  
Year to date cooling degree days 946  
Moisture  
Dew Point 31 °F    
Average Humidity 71    
Maximum Humidity 94    
Minimum Humidity 45    
Precipitation  
Precipitation 0.00 in 0.10 in 0.47 in (1965)
Month to date precipitation 0.72  
Year to date precipitation 31.59  
Sea Level Pressure  
Sea Level Pressure 30.15 in    
Wind  
Wind Speed 5 mph (West)    
Max Wind Speed 16 mph    
Max Gust Speed 24 mph    
Visibility 9 miles    
Events Snow    
T = Trace of Precipitation, MM = Missing Value Source: NWS Daily Summary

Daily Weather History Graph

Daily Weather History Graph

Search for Another Location

Airport:

Trip Planner

Search our weather history database for the weather conditions in past years. The results will help you decide how hot, cold, wet, or windy it might be!

Date:

Astronomy

Oct. 07, 2012 Rise Set
Actual Time 7:45 AM EDT 7:14 PM EDT
Civil Twilight 7:18 AM EDT 7:41 PM EDT
Nautical Twilight 6:46 AM EDT 8:13 PM EDT
Astronomical Twilight 6:15 AM EDT 8:44 PM EDT
Moon No Moon Rise 2:23 PM EDT (10/7)
Length of Visible Light 12h 23m
Length of Day
11h 28m
Waning Gibbous, 56% of the Moon is Illuminated
Oct 7
Waning Gibbous
Oct 8
Last Quarter
Oct 15
New
Oct 21
First Quarter
Oct 29
Full

Hourly Weather History & Observations

Time (EDT) Temp. Windchill Dew Point Humidity Pressure Visibility Wind Dir Wind Speed Gust Speed Precip Events Conditions
12:15 AM 38.5 °F 36.1 °F 34.2 °F 84% 30.16 in 10.0 mi SW 3.5 mph - N/A   Clear
12:35 AM 37.2 °F 33.6 °F 34.3 °F 89% 30.16 in 10.0 mi SW 4.6 mph - N/A   Clear
12:55 AM 36.5 °F - 34.5 °F 93% 30.15 in 10.0 mi Calm Calm - N/A   Clear
1:15 AM 36.5 °F - 34.9 °F 94% 30.15 in 10.0 mi Calm Calm - N/A   Clear
1:35 AM 36.1 °F - 34.5 °F 94% 30.14 in 10.0 mi Calm Calm - N/A   Clear
1:55 AM 35.2 °F - 33.6 °F 94% 30.14 in 10.0 mi Calm Calm - N/A   Clear
2:15 AM 34.9 °F 30.8 °F 33.3 °F 94% 30.14 in 7.0 mi SW 4.6 mph - N/A   Clear
2:35 AM 35.1 °F - 32.9 °F 92% 30.14 in 10.0 mi Calm Calm - N/A   Clear
2:55 AM 35.4 °F - 32.5 °F 89% 30.14 in 10.0 mi Calm Calm - N/A   Clear
3:15 AM 35.2 °F - 32.2 °F 89% 30.14 in 10.0 mi Calm Calm - N/A   Clear
3:35 AM 35.2 °F 32.4 °F 32.2 °F 89% 30.14 in 10.0 mi WSW 3.5 mph - N/A   Clear
3:55 AM 35.4 °F - 33.1 °F 91% 30.13 in 5.0 mi Calm Calm - N/A   Clear
4:15 AM 36.5 °F 32.7 °F 34.3 °F 92% 30.13 in 10.0 mi West 4.6 mph - N/A   Clear
4:35 AM 37.6 °F - 34.9 °F 90% 30.14 in 10.0 mi Calm Calm - N/A   Clear
4:55 AM 37.9 °F 35.5 °F 34.3 °F 87% 30.13 in 10.0 mi WNW 3.5 mph - N/A   Scattered Clouds
5:15 AM 38.3 °F 34.8 °F 33.8 °F 84% 30.14 in 10.0 mi WNW 4.6 mph - N/A   Mostly Cloudy
5:35 AM 38.5 °F 35.0 °F 33.3 °F 81% 30.13 in 10.0 mi WNW 4.6 mph - N/A   Mostly Cloudy
5:55 AM 38.3 °F 35.9 °F 32.9 °F 81% 30.13 in 10.0 mi NW 3.5 mph - N/A   Scattered Clouds
6:15 AM 38.1 °F 35.7 °F 32.9 °F 81% 30.13 in 10.0 mi NW 3.5 mph - N/A   Scattered Clouds
6:35 AM 38.1 °F 34.6 °F 32.5 °F 80% 30.13 in 10.0 mi WNW 4.6 mph - N/A   Scattered Clouds
6:55 AM 37.6 °F 35.1 °F 32.4 °F 81% 30.13 in 7.0 mi NW 3.5 mph - N/A   Scattered Clouds
7:15 AM 37.4 °F 33.8 °F 32.2 °F 81% 30.13 in 10.0 mi West 4.6 mph - N/A   Scattered Clouds
7:35 AM 37.2 °F 33.6 °F 32.5 °F 83% 30.14 in 10.0 mi West 4.6 mph - N/A   Mostly Cloudy
7:55 AM 37.4 °F 33.8 °F 32.2 °F 81% 30.13 in 10.0 mi WNW 4.6 mph - N/A   Scattered Clouds
8:15 AM 37.2 °F 34.7 °F 32.4 °F 83% 30.14 in 10.0 mi West 3.5 mph - N/A   Scattered Clouds
8:35 AM 36.9 °F 34.3 °F 32.9 °F 86% 30.14 in 10.0 mi West 3.5 mph - N/A   Scattered Clouds
8:55 AM 37.4 °F 34.9 °F 32.9 °F 84% 30.14 in 7.0 mi West 3.5 mph - N/A   Scattered Clouds
9:15 AM 37.8 °F 33.3 °F 32.9 °F 83% 30.15 in 10.0 mi West 5.8 mph - N/A   Scattered Clouds
9:35 AM 38.7 °F 33.6 °F 32.9 °F 80% 30.16 in 10.0 mi West 6.9 mph - N/A   Scattered Clouds
9:55 AM 39.2 °F 33.6 °F 33.1 °F 79% 30.16 in 10.0 mi West 8.1 mph - N/A   Scattered Clouds
10:15 AM 39.9 °F 33.9 °F 32.9 °F 76% 30.16 in 10.0 mi West 9.2 mph - N/A   Scattered Clouds
10:35 AM 40.3 °F 35.5 °F 32.9 °F 75% 30.17 in 7.0 mi West 6.9 mph - N/A   Mostly Cloudy
11:15 AM 44.1 °F 39.0 °F 33.4 °F 66% 30.17 in 7.0 mi West 9.2 mph - N/A   Overcast
11:35 AM 44.4 °F 40.0 °F 32.5 °F 63% 30.17 in 10.0 mi West 8.1 mph - N/A   Overcast
11:55 AM 44.4 °F 39.0 °F 31.6 °F 61% 30.17 in 10.0 mi West 10.4 mph - N/A   Overcast
12:15 PM 45.0 °F 39.3 °F 30.4 °F 57% 30.18 in 10.0 mi West 11.5 mph - N/A   Overcast
12:35 PM 45.0 °F 39.7 °F 29.8 °F 55% 30.17 in 10.0 mi West 10.4 mph - N/A   Overcast
12:55 PM 46.0 °F 40.2 °F 29.7 °F 53% 30.17 in 10.0 mi West 12.7 mph - N/A   Overcast
1:15 PM 46.8 °F - 29.3 °F 51% 30.17 in 10.0 mi West 11.5 mph 17.3 mph N/A   Overcast
1:35 PM 46.6 °F - 28.6 °F 50% 30.17 in 10.0 mi West 12.7 mph 19.6 mph N/A   Overcast
1:55 PM 46.9 °F - 26.8 °F 45% 30.16 in 10.0 mi West 13.8 mph 19.6 mph N/A   Overcast
2:15 PM 47.1 °F - 26.8 °F 45% 30.16 in 10.0 mi WNW 13.8 mph 18.4 mph N/A   Overcast
2:35 PM 47.3 °F - 27.5 °F 46% 30.15 in 10.0 mi West 12.7 mph 17.3 mph N/A   Overcast
2:55 PM 47.7 °F - 27.3 °F 45% 30.15 in 10.0 mi West 13.8 mph 24.2 mph N/A   Overcast
3:15 PM 46.9 °F - 27.7 °F 47% 30.15 in 10.0 mi West 16.1 mph - N/A   Overcast
3:55 PM 46.8 °F - 27.9 °F 48% 30.15 in 10.0 mi West 12.7 mph - N/A   Overcast
4:15 PM 46.6 °F - 27.5 °F 47% 30.15 in 10.0 mi West 12.7 mph - N/A   Overcast
4:35 PM 46.4 °F 41.1 °F 27.7 °F 48% 30.15 in 10.0 mi West 11.5 mph - N/A   Overcast
4:55 PM 46.4 °F 40.4 °F 27.3 °F 47% 30.15 in 7.0 mi West 13.8 mph - N/A   Overcast
5:15 PM 46.8 °F - 27.7 °F 47% 30.14 in 10.0 mi West 13.8 mph - N/A   Overcast
5:35 PM 46.9 °F - 27.1 °F 46% 30.15 in 7.0 mi West 10.4 mph - N/A   Overcast
5:55 PM 46.6 °F - 27.5 °F 47% 30.15 in 10.0 mi WSW 11.5 mph - N/A   Overcast
6:15 PM 46.2 °F 41.2 °F 27.7 °F 48% 30.15 in 7.0 mi West 10.4 mph - N/A   Overcast
6:35 PM 46.0 °F 41.4 °F 27.7 °F 49% 30.16 in 7.0 mi West 9.2 mph - N/A   Overcast
7:15 PM 44.8 °F 39.9 °F 28.2 °F 52% 30.16 in 7.0 mi West 9.2 mph - N/A   Mostly Cloudy
7:35 PM 43.2 °F 39.0 °F 29.3 °F 58% 30.16 in 10.0 mi WSW 6.9 mph - N/A   Mostly Cloudy
8:15 PM 41.5 °F 37.1 °F 29.1 °F 61% 30.17 in 5.0 mi WSW 6.9 mph - N/A   Haze
8:35 PM 41.2 °F 37.3 °F 29.5 °F 63% 30.17 in 7.0 mi WSW 5.8 mph - N/A   Overcast
8:55 PM 40.3 °F 34.9 °F 30.0 °F 67% 30.17 in 7.0 mi WSW 8.1 mph - N/A   Overcast
9:15 PM 40.8 °F 36.2 °F 29.3 °F 64% 30.18 in 10.0 mi WSW 6.9 mph - N/A   Overcast
9:35 PM 40.8 °F 36.2 °F 29.8 °F 65% 30.19 in 4.0 mi West 6.9 mph - N/A   Haze
10:15 PM 39.9 °F 36.7 °F 29.1 °F 65% 30.19 in 5.0 mi WSW 4.6 mph - N/A   Haze
10:35 PM 37.6 °F 35.1 °F 29.1 °F 72% 30.18 in 10.0 mi WSW 3.5 mph - N/A   Scattered Clouds
10:55 PM 35.4 °F - 29.3 °F 78% 30.18 in 10.0 mi Calm Calm - N/A   Clear
11:15 PM 35.1 °F 31.0 °F 28.8 °F 78% 30.18 in 10.0 mi WSW 4.6 mph - N/A   Clear
11:35 PM 33.6 °F - 28.6 °F 82% 30.19 in 7.0 mi Calm Calm - N/A   Clear
11:55 PM 33.6 °F 29.4 °F 28.0 °F 80% 30.19 in 7.0 mi SW 4.6 mph - N/A Snow Light Snow